Homer, AK

4:01 PM AKST on February 10, 2016 (GMT -0900)
Homer

Weather History for PAHO - December, 2013

Change the Weather History Date:

Tuesday, December 17, 2013

  Actual Average (PANC) Record (PANC)
Temperature  
Mean Temperature 8 °F 19 °F  
Max Temperature 15 °F 25 °F 44 °F (1980)
Min Temperature 1 °F 13 °F -23 °F (1980)
Degree Days  
Heating Degree Days 57    
Month to date heating degree days  
Since 1 July heating degree days  
Cooling Degree Days 0    
Month to date cooling degree days  
Year to date cooling degree days  
Moisture  
Dew Point -3 °F    
Average Humidity 68    
Maximum Humidity 79    
Minimum Humidity 51    
Precipitation  
Precipitation 0.00 in 0.03 in 0.30 in (2009)
Month to date precipitation 0.64  
Year to date precipitation 16.11  
Snow  
Snow 0.00 in 0.50 in 6.10 in (1994)
Month to date snowfall 9.5  
Since 1 July snowfall 30.9  
Snow Depth -    
Sea Level Pressure  
Sea Level Pressure 30.27 in    
Wind  
Wind Speed 4 mph (NNE)    
Max Wind Speed 6 mph    
Max Gust Speed -    
Visibility 10 miles    
Events      
T = Trace of Precipitation, MM = Missing Value Source: NWS Daily Summary

Daily Weather History Graph

Daily Weather History Graph

Search for Another Location

Airport or City:

Trip Planner

Search our weather history database for the weather conditions in past years. The results will help you decide how hot, cold, wet, or windy it might be!

Date:

Astronomy

Dec. 17, 2013 Rise Set
Actual Time 10:02 AM AKST 4:02 PM AKST
Civil Twilight 9:05 AM AKST 4:58 PM AKST
Nautical Twilight 8:09 AM AKST 5:54 PM AKST
Astronomical Twilight 7:18 AM AKST 6:45 PM AKST
Moon 5:11 PM AKST (12/17) 9:47 AM AKST (12/17)
Length of Visible Light 7h 53m
Length of Day
6h 00m
Full, 100% of the Moon is Illuminated
Dec 17
Full
Dec 25
Last Quarter
Jan 1
New
Jan 7
First Quarter
Jan 15
Full

Hourly Weather History & Observations

Time (AKST) Temp. Windchill Dew Point Humidity Pressure Visibility Wind Dir Wind Speed Gust Speed Precip Events Conditions
12:53 AM 1.9 °F -5.6 °F -5.1 °F 72% 30.15 in 10.0 mi NNW 3.5 mph - N/A   Clear
1:53 AM 3.0 °F -4.4 °F -5.1 °F 69% 30.15 in 10.0 mi NNE 3.5 mph - N/A   Clear
3:53 AM 1.9 °F -5.6 °F -5.1 °F 72% 30.17 in 10.0 mi NNW 3.5 mph - N/A   Clear
4:53 AM 1.9 °F -5.6 °F -5.1 °F 72% 30.19 in 10.0 mi NNE 3.5 mph - N/A   Clear
5:53 AM 1.9 °F -9.2 °F -5.1 °F 72% 30.19 in 10.0 mi NE 5.8 mph - N/A   Clear
6:53 AM 1.9 °F -7.6 °F -6.0 °F 69% 30.19 in 10.0 mi North 4.6 mph - N/A   Clear
7:53 AM 1.9 °F -7.6 °F -7.1 °F 66% 30.21 in 10.0 mi ENE 4.6 mph - N/A   Clear
8:53 AM 5.0 °F -2.1 °F -2.9 °F 70% 30.23 in 10.0 mi NNE 3.5 mph - N/A   Clear
9:53 AM 1.9 °F -5.6 °F -5.1 °F 72% 30.25 in 10.0 mi North 3.5 mph - N/A   Clear
10:53 AM 3.9 °F -3.4 °F -4.0 °F 70% 30.27 in 10.0 mi NE 3.5 mph - N/A   Clear
11:53 AM 8.1 °F 1.4 °F -0.9 °F 67% 30.28 in 7.0 mi NNE 3.5 mph - N/A   Clear
12:53 PM 12.0 °F 4.1 °F -0.0 °F 59% 30.30 in 10.0 mi ENE 4.6 mph - N/A   Clear
1:53 PM 15.1 °F 7.7 °F -0.0 °F 51% 30.30 in 10.0 mi NE 4.6 mph - N/A   Partly Cloudy
2:53 PM 12.9 °F 5.2 °F -0.9 °F 54% 30.30 in 10.0 mi NE 4.6 mph - N/A   Partly Cloudy
3:53 PM 12.0 °F 4.1 °F 1.0 °F 61% 30.31 in 10.0 mi NNE 4.6 mph - N/A   Clear
4:53 PM 6.1 °F -0.9 °F -2.0 °F 69% 30.32 in 10.0 mi NNE 3.5 mph - N/A   Partly Cloudy
5:53 PM 5.0 °F -4.1 °F -2.9 °F 70% 30.33 in 10.0 mi NNE 4.6 mph - N/A   Clear
6:53 PM 3.9 °F -3.4 °F -2.9 °F 73% 30.33 in 10.0 mi NNE 3.5 mph - N/A   Clear
7:53 PM 3.0 °F - -4.0 °F 73% 30.35 in 10.0 mi Calm Calm - N/A   Clear
8:53 PM 1.0 °F -6.7 °F -4.0 °F 79% 30.36 in 10.0 mi NNE 3.5 mph - N/A   Clear
9:53 PM 3.0 °F -6.4 °F -4.0 °F 73% 30.36 in 10.0 mi North 4.6 mph - N/A   Clear
10:53 PM 5.0 °F - -2.9 °F 70% 30.37 in 10.0 mi Calm Calm - N/A   Clear
11:53 PM 3.9 °F - -4.0 °F 70% 30.38 in 10.0 mi Calm Calm - N/A   Clear